Total_Precipitation_Accumulation
0.68 0.71 1.04 1.05 1.01 0.95 0.94 1.01 1.10 1.22 1.34 1.60 1.81 1.94 2.01 2.04 2.04 1.96 1.94 2.11 2.35 2.46 2.50 2.45 2.19 1.99 1.85 1.79 1.64 1.42 1.29 1.30 1.29 1.21 1.21 1.32 1.47 1.66 1.96 2.11 2.02 1.50 1.47
0.41 0.54 0.87 0.93 0.95 0.92 0.84 0.85 0.98 1.13 1.28 1.46 1.71 1.92 1.90 1.89 1.81 1.79 1.83 2.00 2.16 2.16 2.16 2.04 1.86 1.68 1.56 1.48 1.32 1.14 1.15 1.26 1.48 1.53 1.55 1.47 1.59 1.79 1.97 1.86 2.03 1.54 1.38
0.36 0.45 0.62 0.84 0.90 0.84 0.79 0.87 0.99 1.08 1.21 1.40 1.62 1.84 1.81 1.77 1.75 1.73 1.75 1.87 1.93 1.89 1.81 1.69 1.57 1.42 1.28 1.16 1.03 0.99 1.07 1.30 1.68 1.92 1.98 1.47 1.19 1.58 1.75 1.60 1.47 1.30 1.24
0.36 0.43 0.55 0.68 0.78 0.78 0.79 0.89 1.01 1.13 1.26 1.37 1.44 1.60 1.68 1.71 1.71 1.75 1.76 1.69 1.68 1.60 1.52 1.45 1.31 1.19 1.12 0.99 0.93 1.00 1.14 1.34 1.67 2.08 2.07 1.35 0.86 1.05 1.24 1.19 1.22 1.06 1.02
0.37 0.44 0.56 0.57 0.66 0.75 0.79 0.90 0.99 1.13 1.28 1.31 1.33 1.42 1.55 1.62 1.66 1.75 1.72 1.61 1.56 1.51 1.43 1.32 1.17 1.07 0.98 0.89 0.88 1.00 1.20 1.41 1.78 1.90 1.47 1.31 1.14 1.02 0.96 0.98 0.97 0.85 0.76
0.37 0.38 0.54 0.57 0.57 0.66 0.76 0.85 0.91 1.02 1.14 1.20 1.29 1.34 1.43 1.48 1.53 1.62 1.55 1.48 1.47 1.42 1.30 1.26 1.11 0.97 0.86 0.78 0.84 0.98 1.20 1.52 1.61 1.13 1.02 1.11 1.03 1.03 0.95 1.04 0.92 0.80 0.69
0.43 0.41 0.51 0.59 0.59 0.63 0.70 0.76 0.85 0.92 1.03 1.11 1.26 1.36 1.39 1.36 1.42 1.45 1.42 1.37 1.35 1.27 1.14 1.13 1.01 0.91 0.87 0.83 0.87 0.99 1.20 1.59 1.26 0.88 1.02 1.27 1.12 0.98 0.97 1.14 1.09 0.88 0.70
0.53 0.45 0.46 0.59 0.63 0.67 0.72 0.76 0.84 0.91 1.02 1.09 1.13 1.21 1.20 1.16 1.20 1.21 1.27 1.27 1.22 1.13 1.06 1.04 0.92 0.88 0.85 0.84 0.88 0.99 1.17 1.29 0.84 0.85 0.96 1.06 0.94 0.97 1.01 1.18 1.21 1.03 0.84
0.58 0.56 0.52 0.53 0.55 0.64 0.83 0.90 0.89 0.87 0.96 1.04 1.02 1.07 1.10 1.14 1.15 1.14 1.17 1.18 1.13 1.04 0.97 0.97 0.81 0.75 0.71 0.75 0.80 0.90 1.11 1.23 0.97 0.97 0.92 0.89 0.76 0.86 1.05 1.17 1.11 1.07 0.96
0.76 0.72 0.72 0.68 0.62 0.62 0.74 0.90 0.95 0.92 0.97 0.99 1.05 1.10 1.17 1.24 1.22 1.18 1.03 1.05 1.05 1.01 1.02 1.01 0.91 0.79 0.76 0.84 0.94 1.07 1.18 0.97 1.01 0.97 1.09 1.01 0.87 0.99 1.22 1.29 1.18 1.10 1.05
1.05 0.96 0.91 0.77 0.70 0.72 0.71 0.80 0.92 0.97 1.02 1.10 1.20 1.25 1.42 1.58 1.50 1.50 1.29 1.37 1.32 1.24 1.25 1.29 1.19 1.02 0.92 0.92 1.17 1.43 1.16 0.91 1.11 1.17 1.19 1.13 1.08 1.29 1.52 1.50 1.41 1.29 1.18
1.35 1.04 0.98 0.87 0.84 0.81 0.72 0.84 1.06 1.02 1.12 1.29 1.45 1.54 1.83 2.03 2.01 1.63 1.82 1.96 1.86 1.84 1.74 1.73 1.83 1.53 1.18 1.14 1.68 2.01 1.19 0.99 1.03 1.09 1.10 1.11 1.40 1.69 1.88 1.71 1.54 1.46 1.36
1.34 1.34 1.27 1.11 1.11 1.09 1.14 1.05 1.20 1.37 1.55 1.54 1.51 1.71 2.12 2.00 1.86 1.76 1.92 2.28 2.37 2.40 2.31 2.27 2.31 1.94 1.81 1.99 2.16 1.96 1.42 1.33 1.31 1.35 1.36 1.54 1.87 2.14 2.18 1.90 1.72 1.64 1.58
1.64 1.88 1.95 1.67 1.70 1.59 1.42 1.34 1.33 1.41 1.59 1.74 1.95 2.04 2.22 2.34 2.29 2.17 2.24 2.41 2.52 2.66 3.03 2.85 2.72 2.49 2.41 2.26 2.20 1.96 1.72 1.75 1.76 1.89 2.07 1.88 2.00 2.29 2.41 2.21 2.03 1.92 1.88
2.34 2.59 2.78 2.36 2.26 2.13 2.11 2.07 1.79 1.88 1.99 2.12 2.29 2.47 2.52 2.69 2.75 2.74 2.64 2.57 2.37 2.43 2.77 2.98 2.85 2.85 2.75 2.57 2.32 2.13 1.99 1.92 1.86 1.98 2.12 2.27 2.27 2.30 2.50 2.66 2.49 2.25 2.17
2.85 3.02 3.21 3.09 3.09 2.93 2.67 2.71 2.69 2.34 2.42 2.41 2.47 2.50 2.63 2.82 3.15 3.28 3.15 3.00 2.59 2.49 2.55 2.80 2.87 3.08 3.02 2.82 2.25 2.13 2.08 2.07 2.13 2.06 2.21 2.72 2.76 2.39 2.43 2.74 2.86 2.81 2.67
3.74 3.66 3.72 3.69 3.94 3.82 3.39 3.08 2.81 2.64 2.60 2.77 2.82 2.81 2.85 3.06 3.36 3.33 3.15 2.79 2.47 2.45 2.64 2.62 2.63 2.89 2.73 2.60 2.48 2.51 2.45 2.35 2.24 2.21 2.31 2.77 2.78 2.43 2.30 2.38 2.66 2.88 2.99
4.55 4.49 4.29 3.88 4.26 4.28 3.97 3.75 3.42 3.16 3.19 3.17 2.91 2.96 2.88 3.02 2.93 2.99 2.69 2.37 2.38 2.52 2.63 2.78 2.67 2.75 2.80 2.88 2.94 2.89 2.73 2.58 2.16 2.02 1.95 2.08 2.34 2.05 2.20 2.44 2.52 2.61 3.00
4.97 5.19 5.17 5.07 4.82 4.56 4.38 4.24 4.05 3.88 3.55 3.18 3.05 3.09 2.79 2.48 2.28 2.46 2.38 2.31 2.28 2.46 2.49 2.32 2.69 2.91 2.94 2.96 2.75 2.79 2.42 2.27 2.05 1.81 1.79 1.75 1.89 2.02 2.03 2.11 2.26 2.33 2.77
4.92 5.47 5.66 5.72 5.39 4.89 4.45 4.10 4.04 3.80 3.52 3.24 3.05 3.00 2.60 2.34 2.09 2.34 2.30 2.23 2.22 2.39 2.51 2.61 2.91 3.03 2.73 2.67 2.44 2.33 2.04 1.68 1.64 1.63 1.51 1.57 1.70 1.69 1.83 2.01 2.25 2.09 2.57
4.48 5.17 5.31 5.61 5.11 4.48 3.98 3.61 3.50 3.30 2.99 2.88 2.76 2.70 2.55 2.29 2.19 2.43 2.28 2.33 2.16 2.24 2.25 2.35 2.60 2.74 2.38 2.48 2.94 2.53 1.93 1.56 1.55 1.45 1.44 1.52 1.58 1.65 1.88 2.19 2.39 2.44 2.49
3.88 4.59 4.65 4.37 4.17 3.75 3.37 3.21 3.04 2.99 2.66 2.48 2.35 2.43 2.22 2.07 2.10 2.13 2.28 2.14 2.08 2.22 2.22 2.27 2.48 2.47 2.18 2.38 2.89 3.00 2.46 2.06 1.75 1.40 1.38 1.42 1.56 1.79 1.90 1.96 2.36 2.65 2.65
3.53 3.62 3.26 3.12 3.23 3.19 3.02 2.92 2.77 2.77 2.58 2.32 2.16 2.19 2.03 1.84 1.86 1.90 1.91 1.97 2.08 1.87 2.03 2.21 2.35 2.43 2.31 2.25 2.52 2.96 2.74 2.39 2.04 1.66 1.52 1.61 1.80 1.96 2.03 2.18 2.28 2.50 2.70
2.69 2.61 2.58 2.58 2.65 2.86 2.85 2.63 2.45 2.18 2.09 2.03 1.93 1.99 1.98 1.75 1.68 1.71 1.71 1.86 1.94 1.88 2.11 1.84 1.97 2.24 2.46 2.27 2.29 2.34 2.40 2.62 2.58 2.16 1.79 1.67 1.78 1.91 2.00 2.01 2.08 2.36 2.62
2.03 2.10 2.10 2.40 2.52 2.55 2.53 2.49 2.52 2.26 2.08 2.04 2.15 2.36 2.28 1.96 1.65 1.50 1.60 1.76 1.86 1.91 1.99 1.93 2.04 2.01 2.08 2.14 2.22 2.22 2.36 2.59 2.44 2.34 2.14 1.91 1.82 1.67 1.72 1.85 2.04 2.29 2.45
1.36 1.50 1.63 1.93 2.17 2.24 2.19 2.19 2.26 2.30 2.28 2.09 2.04 2.10 2.05 1.90 1.71 1.53 1.56 1.78 1.85 1.89 1.90 1.95 1.96 1.88 1.96 2.07 2.12 2.15 2.34 2.38 2.31 2.40 2.25 2.07 1.94 1.68 1.66 1.74 1.95 2.11 2.19